Retour au catalogue

STARLINK-4048

ActifCommunicationsVLEO
NORAD 52839·PAYLOAD·🇺🇸 United States

Lancé Jun 17, 2022 depuis Cape Canaveral Space Force Station

Loading…

Prochains Passages (prochaines 24 heures)

TLE

FraisSource: CelesTrak SupGP

Époque: Sep 15, 2026, 02:47 UTC

1 52839C 22062K   26258.11645833 -.00031302  00000+0 -10066-2 0  2586
2 52839  53.1579 253.8727 0001339  88.6939 328.5666 15.31717293    18

Suivez STARLINK-4048 en temps réel avec AllMySat

Download on the App Store